Sturgis, MI

12:12 PM EST on February 19, 2017 (GMT -0500)
Kirsch Municipal

Weather History for KIRS - November, 2012

Change the Weather History Date:

Friday, November 30, 2012

  Actual Average (KHAI) Record (KHAI)
Temperature  
Mean Temperature 42 °F -  
Max Temperature 48 °F 40 °F 63 °F (1991)
Min Temperature 35 °F 27 °F 0 °F (1958)
Degree Days  
Heating Degree Days 24    
Moisture  
Dew Point 30 °F    
Average Humidity 64    
Maximum Humidity 81    
Minimum Humidity 50    
Precipitation  
Precipitation 0.00 in - - ()
Sea Level Pressure  
Sea Level Pressure 30.13 in    
Wind  
Wind Speed 5 mph (SE)    
Max Wind Speed 12 mph    
Max Gust Speed -    
Visibility 10 miles    
Events      
Averages and records for this station are not official NWS values.
T = Trace of Precipitation, MM = Missing Value Source: NWS Daily Summary

Daily Weather History Graph

Daily Weather History Graph

Search for Another Location

Airport or City:

Trip Planner

Search our weather history database for the weather conditions in past years. The results will help you decide how hot, cold, wet, or windy it might be!

Date:

Astronomy

Nov. 30, 2012 Rise Set
Actual Time 7:49 AM EST 5:11 PM EST
Civil Twilight 7:18 AM EST 5:42 PM EST
Nautical Twilight 6:43 AM EST 6:17 PM EST
Astronomical Twilight 6:10 AM EST 6:51 PM EST
Moon 7:06 PM EST (11/30) 9:20 AM EST (11/30)
Length of Visible Light 10h 24m
Length of Day
9h 22m
Waning Gibbous, 96% of the Moon is Illuminated
Nov 30
Waning Gibbous
Dec 6
Last Quarter
Dec 13
New
Dec 20
First Quarter
Dec 28
Full

Hourly Weather History & Observations

Time (EST) Temp. Windchill Dew Point Humidity Pressure Visibility Wind Dir Wind Speed Gust Speed Precip Events Conditions
12:14 AM 41.0 °F 36.4 °F 28.4 °F 61% 30.15 in 10.0 mi SSE 6.9 mph - N/A   Overcast
12:35 AM 41.0 °F 35.8 °F 28.4 °F 61% 30.15 in 10.0 mi SSE 8.1 mph - N/A   Overcast
12:55 AM 41.0 °F 37.1 °F 28.4 °F 61% 30.14 in 10.0 mi South 5.8 mph - N/A   Overcast
1:14 AM 41.0 °F 37.1 °F 28.4 °F 61% 30.14 in 10.0 mi South 5.8 mph - N/A   Overcast
1:35 AM 39.2 °F 37.0 °F 28.4 °F 65% 30.14 in 10.0 mi South 3.5 mph - N/A   Mostly Cloudy
1:55 AM 37.4 °F 33.8 °F 28.4 °F 70% 30.14 in 10.0 mi SSE 4.6 mph - N/A   Scattered Clouds
2:15 AM 37.4 °F 33.8 °F 28.4 °F 70% 30.14 in 10.0 mi SSE 4.6 mph - N/A   Scattered Clouds
2:35 AM 39.2 °F 35.0 °F 28.4 °F 65% 30.14 in 10.0 mi South 5.8 mph - N/A   Scattered Clouds
2:54 AM 39.2 °F 35.9 °F 28.4 °F 65% 30.15 in 10.0 mi SSE 4.6 mph - N/A   Mostly Cloudy
3:15 AM 39.2 °F 35.9 °F 28.4 °F 65% 30.14 in 10.0 mi SSE 4.6 mph - N/A   Overcast
3:34 AM 39.2 °F 35.9 °F 28.4 °F 65% 30.14 in 10.0 mi SSE 4.6 mph - N/A   Overcast
3:55 AM 41.0 °F 35.8 °F 28.4 °F 61% 30.13 in 10.0 mi South 8.1 mph - N/A   Overcast
4:15 AM 41.0 °F 36.4 °F 28.4 °F 61% 30.12 in 10.0 mi South 6.9 mph - N/A   Overcast
4:35 AM 41.0 °F 37.1 °F 28.4 °F 61% 30.12 in 10.0 mi SSE 5.8 mph - N/A   Overcast
4:55 AM 41.0 °F 37.1 °F 28.4 °F 61% 30.12 in 10.0 mi SSE 5.8 mph - N/A   Overcast
5:15 AM 41.0 °F 36.4 °F 28.4 °F 61% 30.12 in 10.0 mi South 6.9 mph - N/A   Overcast
5:35 AM 41.0 °F 36.4 °F 28.4 °F 61% 30.12 in 10.0 mi SSE 6.9 mph - N/A   Overcast
5:55 AM 41.0 °F 35.8 °F 28.4 °F 61% 30.11 in 10.0 mi SSE 8.1 mph - N/A   Overcast
6:14 AM 39.2 °F 35.0 °F 28.4 °F 65% 30.11 in 10.0 mi SSE 5.8 mph - N/A   Mostly Cloudy
6:35 AM 39.2 °F 37.0 °F 28.4 °F 65% 30.12 in 10.0 mi South 3.5 mph - N/A   Scattered Clouds
6:55 AM 39.2 °F 37.0 °F 28.4 °F 65% 30.13 in 10.0 mi SSE 3.5 mph - N/A   Scattered Clouds
7:15 AM 37.4 °F 33.8 °F 28.4 °F 70% 30.13 in 10.0 mi SSE 4.6 mph - N/A   Scattered Clouds
7:35 AM 37.4 °F 31.4 °F 28.4 °F 70% 30.12 in 10.0 mi SSE 8.1 mph - N/A   Mostly Cloudy
7:55 AM 37.4 °F 32.1 °F 28.4 °F 70% 30.12 in 10.0 mi SSE 6.9 mph - N/A   Scattered Clouds
8:15 AM 37.4 °F 33.8 °F 28.4 °F 70% 30.12 in 10.0 mi SE 4.6 mph - N/A   Scattered Clouds
8:34 AM 37.4 °F 32.8 °F 28.4 °F 70% 30.12 in 10.0 mi SSE 5.8 mph - N/A   Scattered Clouds
8:55 AM 37.4 °F 33.8 °F 28.4 °F 70% 30.12 in 10.0 mi SE 4.6 mph - N/A   Mostly Cloudy
9:15 AM 37.4 °F 32.8 °F 28.4 °F 70% 30.12 in 10.0 mi SSE 5.8 mph - N/A   Mostly Cloudy
9:34 AM 39.2 °F 35.0 °F 28.4 °F 65% 30.12 in 10.0 mi SSE 5.8 mph - N/A   Overcast
9:55 AM 39.2 °F 35.0 °F 28.4 °F 65% 30.12 in 10.0 mi SSE 5.8 mph - N/A   Overcast
10:15 AM 41.0 °F 37.1 °F 28.4 °F 61% 30.13 in 10.0 mi South 5.8 mph - N/A   Scattered Clouds
10:34 AM 42.8 °F 38.6 °F 30.2 °F 61% 30.13 in 10.0 mi SSE 6.9 mph - N/A   Clear
10:55 AM 42.8 °F 38.6 °F 30.2 °F 61% 30.12 in 10.0 mi South 6.9 mph - N/A   Scattered Clouds
11:15 AM 44.6 °F 41.4 °F 30.2 °F 57% 30.12 in 10.0 mi South 5.8 mph - N/A   Scattered Clouds
11:35 AM 44.6 °F - 30.2 °F 57% 30.12 in 10.0 mi Calm Calm - N/A   Scattered Clouds
11:55 AM 46.4 °F 43.5 °F 30.2 °F 53% 30.11 in 10.0 mi South 5.8 mph - N/A   Clear
12:15 PM 46.4 °F 42.9 °F 30.2 °F 53% 30.10 in 10.0 mi South 6.9 mph - N/A   Clear
12:35 PM 46.4 °F 43.5 °F 30.2 °F 53% 30.09 in 10.0 mi South 5.8 mph - N/A   Scattered Clouds
12:55 PM 46.4 °F - 30.2 °F 53% 30.10 in 10.0 mi Calm Calm - N/A   Scattered Clouds
1:15 PM 46.4 °F - 30.2 °F 53% 30.09 in 10.0 mi Calm Calm - N/A   Scattered Clouds
1:35 PM 46.4 °F - 30.2 °F 53% 30.09 in 10.0 mi Calm Calm - N/A   Scattered Clouds
1:55 PM 46.4 °F 45.2 °F 30.2 °F 53% 30.08 in 10.0 mi South 3.5 mph - N/A   Mostly Cloudy
2:14 PM 48.2 °F - 30.2 °F 50% 30.08 in 10.0 mi South 4.6 mph - N/A   Mostly Cloudy
2:35 PM 46.4 °F 45.2 °F 32.0 °F 57% 30.08 in 10.0 mi South 3.5 mph - N/A   Scattered Clouds
2:55 PM 48.2 °F - 32.0 °F 54% 30.08 in 10.0 mi South 3.5 mph - N/A   Scattered Clouds
3:14 PM 48.2 °F - 32.0 °F 54% 30.09 in 10.0 mi SSE 4.6 mph - N/A   Mostly Cloudy
3:35 PM 48.2 °F - 32.0 °F 54% 30.09 in 10.0 mi SSE 3.5 mph - N/A   Mostly Cloudy
3:55 PM 46.4 °F 45.2 °F 32.0 °F 57% 30.09 in 10.0 mi SSE 3.5 mph - N/A   Mostly Cloudy
4:14 PM 46.4 °F 45.2 °F 32.0 °F 57% 30.10 in 10.0 mi SE 3.5 mph - N/A   Scattered Clouds
4:35 PM 46.4 °F 45.2 °F 32.0 °F 57% 30.10 in 10.0 mi SSE 3.5 mph - N/A   Scattered Clouds
4:55 PM 46.4 °F - 32.0 °F 57% 30.11 in 10.0 mi Calm Calm - N/A   Mostly Cloudy
5:15 PM 46.4 °F 44.3 °F 32.0 °F 57% 30.11 in 10.0 mi SSE 4.6 mph - N/A   Scattered Clouds
5:35 PM 44.6 °F - 30.2 °F 57% 30.13 in 10.0 mi Calm Calm - N/A   Scattered Clouds
5:55 PM 44.6 °F 43.1 °F 30.2 °F 57% 30.13 in 10.0 mi ENE 3.5 mph - N/A   Scattered Clouds
6:15 PM 39.2 °F 37.0 °F 30.2 °F 70% 30.13 in 10.0 mi East 3.5 mph - N/A   Scattered Clouds
6:35 PM 42.8 °F 41.1 °F 30.2 °F 61% 30.15 in 10.0 mi East 3.5 mph - N/A   Mostly Cloudy
6:54 PM 42.8 °F 41.1 °F 30.2 °F 61% 30.15 in 10.0 mi East 3.5 mph - N/A   Mostly Cloudy
7:15 PM 39.2 °F 37.0 °F 30.2 °F 70% 30.16 in 10.0 mi NE 3.5 mph - N/A   Clear
7:35 PM 41.0 °F - 30.2 °F 65% 30.17 in 10.0 mi Calm Calm - N/A   Clear
7:55 PM 37.4 °F 34.9 °F 30.2 °F 75% 30.18 in 10.0 mi NNE 3.5 mph - N/A   Clear
8:15 PM 35.6 °F 31.7 °F 28.4 °F 75% 30.17 in 10.0 mi ENE 4.6 mph - N/A   Clear
8:35 PM 37.4 °F 32.8 °F 30.2 °F 75% 30.17 in 10.0 mi ENE 5.8 mph - N/A   Scattered Clouds
8:55 PM 37.4 °F 32.1 °F 30.2 °F 75% 30.17 in 10.0 mi East 6.9 mph - N/A   Scattered Clouds
9:15 PM 37.4 °F 32.1 °F 30.2 °F 75% 30.17 in 10.0 mi East 6.9 mph - N/A   Clear
9:35 PM 39.2 °F 33.0 °F 30.2 °F 70% 30.16 in 10.0 mi East 9.2 mph - N/A   Clear
9:55 PM 37.4 °F 31.4 °F 30.2 °F 75% 30.16 in 10.0 mi East 8.1 mph - N/A   Clear
10:14 PM 37.4 °F 29.8 °F 30.2 °F 75% 30.15 in 10.0 mi ESE 11.5 mph - N/A   Clear
10:35 PM 37.4 °F 30.8 °F 30.2 °F 75% 30.15 in 10.0 mi ESE 9.2 mph - N/A   Clear
10:55 PM 35.6 °F 29.9 °F 30.2 °F 81% 30.16 in 10.0 mi ESE 6.9 mph - N/A   Clear
11:15 PM 35.6 °F 29.9 °F 30.2 °F 81% 30.16 in 10.0 mi ESE 6.9 mph - N/A   Clear
11:35 PM 35.6 °F - 30.2 °F 81% 30.17 in 10.0 mi Calm Calm - N/A   Clear
11:55 PM 35.6 °F 31.7 °F 30.2 °F 81% 30.16 in 10.0 mi ESE 4.6 mph - N/A   Clear